"Pseudo-MPEC" for P10Iled

Created 2018 Jul 18 14:18:10 UT using Find_Orb

Click here for an explanation of pseudo-MPECs

 
 Astrometry: 
     P10Iled  C2018 07 11#FAstrometrypAYg%IJhS#6Yj/o0`QHVqcoukbv!fBqa8A%c/X@EF51
     P10Iled  C2018 07 11k1.aAnli$cSs=(?Y$redacted;@yFka^\'!k:A6+RxFMl8=JUJwrF51
     P10Iled  C2018 07 11,,06+0\F3@(nuM.=no;:Ba-91b=/5I%usee3pD,'1c%!7h=T\fpPF51
     P10Iled  C2018 07 11cW]VCtRiw1d1'jUgKfm5EngfZ#R*TobkL_Ek4wx.^CcKn)?NEOCPF51

Station data:
(F51) Pan-STARRS 1, Haleakala  (N20.707235 W156.255910)  US/Hawaii.
   Observers N. Primak, A. Schultz, S. Watters, J. Thiel, T. Goggia. Measurer
   PS1 Science Consortium. 1.8-m Ritchey-Chrétien + CCD.

Orbital elements:  P10Iled
   Perihelion 2018 Oct 2.215847 +/- 57.2 TT =  5:10:49 (JD 2458393.715847)
Epoch 2018 Jul 11.0 TT = JDT 2458310.5   Earth MOID: 0.0453   AutoNEOCP
M 286.84815 +/- 90                  (J2000 ecliptic)
n   0.87906147 +/- 0.588            Peri.   84.32746 +/- 110
a   1.07925288 +/- 0.482            Node   283.98170 +/- 2.9
e   0.0810953 +/- 0.261             Incl.   17.37569 +/- 26
P   1.12/409.52d           H 25.1   G  0.15   U 12.4  SR
q 0.99173053 +/- 0.29    Q 1.16677522 +/- 22.6
From 4 observations 2018 July 11 (56.0 min); mean residual 0".10
Residuals in arcseconds: 
180711 F51  .05+  .14+    180711 F51  .05-  .00     
180711 F51  .05-  .21-    180711 F51  .05+  .07+    

Ephemerides (geocentric):
Date (UTC) HH   RA              Dec         delta   r     elong  mag " sig PA
---- -- -- --  -------------   -----------  ------ ------ -----  --- ---- ---
2018 07 18 14  16 05 34.416   +17 09 54.19  .08112 1.0506 112.9 22.0  26d 160
2018 07 18 15  16 05 34.989   +17 16 41.64  .08125 1.0505 112.9 22.0  26d 160
2018 07 18 16  16 05 35.569   +17 23 27.70  .08139 1.0505 112.8 22.0  26d 161
2018 07 18 17  16 05 36.154   +17 30 12.35  .08152 1.0504 112.7 22.1  27d 161
2018 07 18 18  16 05 36.745   +17 36 55.60  .08166 1.0504 112.6 22.1  27d 161
2018 07 18 19  16 05 37.341   +17 43 37.47  .08179 1.0503 112.5 22.1  27d 161
2018 07 18 20  16 05 37.943   +17 50 17.95  .08193 1.0502 112.4 22.1  27d 161
2018 07 18 21  16 05 38.551   +17 56 57.04  .08207 1.0502 112.3 22.1  27d 161
2018 07 18 22  16 05 39.164   +18 03 34.76  .08220 1.0501 112.2 22.1  27d 161
2018 07 18 23  16 05 39.782   +18 10 11.10  .08234 1.0501 112.2 22.1  27d 161
2018 07 19 00  16 05 40.406   +18 16 46.07  .08247 1.0500 112.1 22.1  27d 161
2018 07 19 01  16 05 41.036   +18 23 19.68  .08261 1.0500 112.0 22.1  27d 162
2018 07 19 02  16 05 41.671   +18 29 51.92  .08275 1.0499 111.9 22.1  27d 162
2018 07 19 03  16 05 42.311   +18 36 22.80  .08289 1.0499 111.8 22.1  27d 162
2018 07 19 04  16 05 42.956   +18 42 52.34  .08303 1.0498 111.7 22.1  27d 162
2018 07 19 05  16 05 43.607   +18 49 20.52  .08316 1.0498 111.6 22.1  27d 162
2018 07 19 06  16 05 44.263   +18 55 47.35  .08330 1.0497 111.6 22.1  27d 162
2018 07 19 07  16 05 44.925   +19 02 12.85  .08344 1.0497 111.5 22.1  27d 162
2018 07 19 08  16 05 45.592   +19 08 37.01  .08358 1.0496 111.4 22.1  28d 162
2018 07 19 09  16 05 46.264   +19 14 59.84  .08372 1.0495 111.3 22.1  28d 162
2018 07 19 10  16 05 46.941   +19 21 21.33  .08386 1.0495 111.2 22.2  28d 162
2018 07 19 11  16 05 47.623   +19 27 41.51  .08400 1.0494 111.1 22.2  28d 162
2018 07 19 12  16 05 48.311   +19 34 00.36  .08414 1.0494 111.0 22.2  28d 162
2018 07 19 13  16 05 49.003   +19 40 17.90  .08428 1.0493 111.0 22.2  28d 162
2018 07 19 14  16 05 49.701   +19 46 34.13  .08442 1.0493 110.9 22.2  28d 162
2018 07 19 15  16 05 50.404   +19 52 49.06  .08456 1.0492 110.8 22.2  28d 162
2018 07 19 16  16 05 51.112   +19 59 02.68  .08470 1.0492 110.7 22.2  28d 162
2018 07 19 17  16 05 51.825   +20 05 15.00  .08484 1.0491 110.6 22.2  28d 162
2018 07 19 18  16 05 52.543   +20 11 26.03  .08498 1.0491 110.5 22.2  28d 162
2018 07 19 19  16 05 53.266   +20 17 35.77  .08513 1.0490 110.5 22.2  28d 162
2018 07 19 20  16 05 53.994   +20 23 44.23  .08527 1.0489 110.4 22.2  28d 162
2018 07 19 21  16 05 54.726   +20 29 51.40  .08541 1.0489 110.3 22.2  28d 162
2018 07 19 22  16 05 55.464   +20 35 57.30  .08555 1.0488 110.2 22.2  28d 162
2018 07 19 23  16 05 56.207   +20 42 01.93  .08570 1.0488 110.1 22.2  28d 162
2018 07 20 00  16 05 56.954   +20 48 05.29  .08584 1.0487 110.1 22.2  28d 162
2018 07 20 01  16 05 57.706   +20 54 07.39  .08598 1.0487 110.0 22.2  28d 162
2018 07 20 02  16 05 58.463   +21 00 08.23  .08613 1.0486 109.9 22.2  28d 162
2018 07 20 03  16 05 59.225   +21 06 07.81  .08627 1.0486 109.8 22.3  28d 162
2018 07 20 04  16 05 59.992   +21 12 06.15  .08641 1.0485 109.7 22.3  28d 162
2018 07 20 05  16 06 00.763   +21 18 03.23  .08656 1.0485 109.7 22.3  28d 162
2018 07 20 06  16 06 01.539   +21 23 59.08  .08670 1.0484 109.6 22.3  28d 162
2018 07 20 07  16 06 02.320   +21 29 53.69  .08685 1.0484 109.5 22.3  28d 162
2018 07 20 08  16 06 03.106   +21 35 47.07  .08699 1.0483 109.4 22.3  28d 162
2018 07 20 09  16 06 03.896   +21 41 39.22  .08714 1.0482 109.3 22.3  28d 162
2018 07 20 10  16 06 04.690   +21 47 30.15  .08728 1.0482 109.3 22.3  28d 162
2018 07 20 11  16 06 05.490   +21 53 19.86  .08743 1.0481 109.2 22.3  28d 162
2018 07 20 12  16 06 06.294   +21 59 08.35  .08758 1.0481 109.1 22.3  28d 162
2018 07 20 13  16 06 07.102   +22 04 55.64  .08772 1.0480 109.0 22.3  28d 162